This demonstration page uses our WeatherBlox Daily Observations layout. Learn more.

Left ArrowRight Arrow

41.86663, -103.66717

Hourly Observations for April 14, 2017

Temp ( °F °C ) Dew Point ( °F °C ) Humidity (%) Winds ( mph kmh ) Pressure ( in mb ) Visibility ( mi km ) Precip ( " mm )
12:04 am 00:04 Mostly Cloudy 57 14 46 8 67 67 SE 22 35 29.74 1007 10 16.0934 N/A
12:53 am 00:53 Cloudy 55 12.8 46 7.8 72 72 ESE 15 24 29.74 1007 10 16.0934 N/A
1:53 am 01:53 Cloudy 56 13.3 48 8.9 75 75 SSE 17 28 29.7 1006 10 16.0934 N/A
2:53 am 02:53 Cloudy 55 12.8 47 8.3 74 74 SE 12 19 29.68 1005 10 16.0934 N/A
3:37 am 03:37 Mostly Cloudy 54 12.2 48 8.9 80 80 E 10 17 29.68 1005 10 16.0934 N/A
3:53 am 03:53 Cloudy 53 11.7 47 8.3 80 80 E 12 19 29.66 1004 10 16.0934 N/A
4:50 am 04:50 Mostly Clear 52 11 46 8 82 82 SE 14 22 29.68 1005 10 16.0934 N/A
4:53 am 04:53 Mostly Clear 52 11.1 47 8.3 83 83 SE 12 19 29.64 1004 10 16.0934 N/A
5:53 am 05:53 Clear 49 9.4 46 7.8 90 90 ESE 10 17 29.64 1004 10 16.0934 N/A
6:53 am 06:53 Sunny 48 8.9 46 7.8 93 93 ESE 9 15 29.67 1005 7 11.26538 N/A
7:53 am 07:53 Sunny 54 12.2 50 10 87 87 ESE 13 20 29.66 1004 9 14.48406 N/A
8:53 am 08:53 Sunny 58 14.4 51 10.6 78 78 SSE 6 9 29.67 1005 10 16.0934 N/A
9:53 am 09:53 Sunny 64 17.8 48 8.9 56 56 WNW 8 13 29.67 1005 10 16.0934 N/A
10:53 am 10:53 Sunny 68 20 48 8.9 49 49 NW 8 13 29.67 1005 10 16.0934 N/A
11:53 am 11:53 Sunny 72 22.2 45 7.2 38 38 NNW 7 11 29.65 1004 10 16.0934 N/A
12:53 pm 12:53 Sunny 76 24.4 38 3.3 25 25 NNW 8 13 29.63 1003 10 16.0934 N/A
1:53 pm 13:53 Sunny 77 25 34 1.1 21 21 NNE 3 6 29.62 1003 10 16.0934 N/A
2:53 pm 14:53 Sunny 78 25.6 32 undefined 19 19 WNW 6 9 29.6 1002 10 16.0934 N/A
3:53 pm 15:53 Sunny 78 25.6 33 0.6 19 19 N 7 11 29.6 1003 10 16.0934 N/A
4:23 pm 16:23 Hazy 78 25.6 33 0.6 19 19 W 7 11 29.44 997 2 3.21868 N/A
4:36 pm 16:36 Sunny 79 26.1 34 1.1 20 20 WNW 9 15 29.41 996 7 11.26538 N/A
4:53 pm 16:53 Mostly Cloudy with Haze 76 24.4 33 0.6 21 21 NNW 9 15 29.61 1003 3 4.82802 N/A
5:37 pm 17:37 Mostly Cloudy 74 23.3 32 undefined 21 21 NNW 14 22 29.5 999 10 16.0934 N/A
5:53 pm 17:53 Partly Cloudy 73 22.8 31 -0.6 21 21 N 9 15 29.63 1004 10 16.0934 N/A
6:53 pm 18:53 Sunny 69 20.6 30 -1.1 23 23 NNE 12 19 29.64 1004 10 16.0934 N/A
7:13 pm 19:13 Partly Cloudy with Nearby Thunderstorms 68 20 31 -0.6 25 25 NE 9 15 29.53 1000 10 16.0934 N/A
7:21 pm 19:21 Mostly Cloudy with Thunderstorms 68 20 31 -0.6 25 25 N 7 11 29.56 1001 10 16.0934 N/A
7:53 pm 19:53 Cloudy with Light Thunderstorms 60 15.6 41 5 50 50 N 16 26 29.73 1007 8 12.87472 0.02 0.508
7:57 pm 19:57 Cloudy with Light Rain 60 15.6 41 5 50 50 NE 22 35 29.65 1004 9 14.48406 N/A
8:53 pm 20:53 Mostly Cloudy 57 13.9 44 6.7 62 62 NE 12 19 29.72 1006 10 16.0934 N/A
9:53 pm 21:53 Mostly Cloudy 56 13.3 44 6.7 65 65 NNE 12 19 29.7 1006 10 16.0934 N/A
10:53 pm 22:53 Clear 53 11.7 44 6.7 72 72 NNE 9 15 29.7 1006 10 16.0934 N/A
11:53 pm 23:53 Clear 55 12.8 41 5 59 59 N N/A 29.69 1006 10 16.0934 N/A

Powered by AerisWeather